Ask Your Question

parzival's profile - karma

parzival's karma change log

10 0 Preparing ROS Robot for Release ( 2020-09-17 12:02:36 -0500 )

2 0 Hector_slam not working with my bag file ( 2020-09-03 22:05:45 -0500 )

0 -2 Hector_slam not working with my bag file ( 2020-09-03 22:05:34 -0500 )

10 0 TF laser_frame is jump up and down flickering, each time i try to turn the map make a mess ( 2020-08-12 23:47:24 -0500 )

0 -2 hector slam ( 2020-08-08 10:00:57 -0500 )

2 0 What is the difference between min_vel_x, min_trans_vel and trans_stopped_vel? ( 2020-07-14 08:22:03 -0500 )

15 0 Cannot locate node of type [ekf_localization_node] in package [robot_localization] ( 2020-07-04 03:46:59 -0500 )

0 -2 Why no ROSCON 2013 videos on youtube? ( 2020-07-04 03:25:18 -0500 )

2 0 How do I publish exactly one message? ( 2020-06-30 01:11:39 -0500 )

0 -2 How do I publish exactly one message? ( 2020-06-30 01:11:22 -0500 )

0 -2 How to shutdown all nodes ( 2020-06-29 06:38:28 -0500 )

0 -2 Start or stop the ROS node in another node ( 2020-06-29 01:33:12 -0500 )

0 -2 Different Ubuntu and ROS versions on my robot and workstation ( 2020-06-28 13:56:50 -0500 )

10 0 rosbridge websocket server over internet ( 2020-06-25 15:44:16 -0500 )

2 0 Robot Jerky Movement with Navigation Stack ( 2020-06-19 12:56:05 -0500 )

0 -2 Robot Jerky Movement with Navigation Stack ( 2020-06-19 12:29:09 -0500 )

10 0 can't locate node in package ( 2020-06-10 08:59:43 -0500 )

10 0 Does move_base require Twist from Odometry? ( 2020-04-18 13:51:55 -0500 )

10 0 can't locate node in package ( 2020-03-19 07:32:40 -0500 )

2 0 Issues with Arduino: Wrong checksum, Mismatched protocol version ( 2019-12-29 06:07:50 -0500 )

10 0 QXcb connection XCB error 170 ( 2019-12-25 08:41:18 -0500 )

10 0 Create quaternion from euler in arduino ( 2019-11-09 16:39:41 -0500 )

15 0 Create quaternion from euler in arduino ( 2019-11-09 16:39:39 -0500 )

10 0 Arduino publish Odom ( 2019-11-09 11:17:42 -0500 )

15 0 Arduino publish Odom ( 2019-11-09 11:17:39 -0500 )

10 0 ROS newby - suitability of old Thinkpad X240? ( 2019-11-09 00:59:18 -0500 )

0 -10 ROS newby - suitability of old Thinkpad X240? ( 2019-11-09 00:59:17 -0500 )

10 0 ROS newby - suitability of old Thinkpad X240? ( 2019-11-09 00:57:29 -0500 )

2 0 Does move_base require Twist from Odometry? ( 2019-08-23 00:17:23 -0500 )

0 -2 Does move_base require Twist from Odometry? ( 2019-08-23 00:17:13 -0500 )

2 0 Does move_base require Twist from Odometry? ( 2019-08-23 00:16:52 -0500 )

2 0 Where can I find Ubuntu Mate 16.04 ISO to install ROS Kinetic on Raspberry Pi ( 2019-08-22 08:34:00 -0500 )

10 0 Where can I find Ubuntu Mate 16.04 ISO to install ROS Kinetic on Raspberry Pi ( 2019-08-11 11:31:02 -0500 )

15 0 how to view ros package code? ( 2019-03-25 04:03:53 -0500 )

15 0 QXcb Connection ( 2018-09-14 17:19:33 -0500 )